User: anonymous   Login
Location: Cactus School
(34.5700°N, 118.0931°W)
Time: 00:45:50
(UTC-07:00)
Language:

Hubble Space Telescope - Orbit

View from above orbital plane
View from above orbital plane
View from above satellite
View from above satellite

Ground track
Ground track

The orbit data is extracted from the following two-line orbital elements,

1 20580U 90037B   18170.95977414 +.00000363 +00000-0 +11234-4 0  9994
2 20580 028.4696 096.7766 0002811 166.2548 277.0398 15.09052978345809
Epoch (UTC): 19 June 2018 23:02:04
Eccentricity: 0.0002811
inclination: 28.4696°
perigee height: 537 km
apogee height: 541 km
right ascension of ascending node: 96.7766°
argument of perigee: 166.2548°
revolutions per day: 15.09052978
mean anomaly at epoch: 277.0398°
orbit number at epoch: 34580

The dashed part of the orbit path shows where the satellite is in the earth's shadow,  

DLR